This demonstration page uses our WeatherBlox Daily Observations layout. Learn more.

38.89511, -77.03637

Hourly Observations for September 14, 2015

Temp ( °F °C ) Dew Point ( °F °C ) Humidity (%) Winds ( mph kmh ) Pressure ( in mb ) Visibility ( mi km ) Precip ( " mm )
12:52 am 00:52 Mostly Clear 61 16 46 8 59 59 W 7 11 30.03 1017 10 16.09344 0 0
1:52 am 01:52 Mostly Clear 57 14 46 8 67 67 WSW 6 9 30.03 1017 10 16.09344 0 0
2:52 am 02:52 Clear 57 14 46 8 67 67 WSW 7 11 30.03 1017 10 16.09344 0 0
3:52 am 03:52 Clear 55 13 46 8 72 72 WSW 7 11 30.06 1018 10 16.09344 0 0
4:52 am 04:52 Clear 55 13 46 8 72 72 WSW 8 13 30.09 1019 10 16.09344 0 0
5:52 am 05:52 Clear 55 13 46 8 72 72 WSW 7 11 30.12 1020 10 16.09344 0 0
6:52 am 06:52 Sunny 55 13 46 8 72 72 WSW 7 11 30.15 1021 10 16.09344 0 0
7:52 am 07:52 Sunny 57 14 46 8 67 67 WSW 9 15 30.18 1022 10 16.09344 0 0
8:52 am 08:52 Sunny 63 17 45 7 52 52 WSW 7 11 30.18 1022 10 16.09344 0 0
9:52 am 09:52 Sunny 68 20 45 7 43 43 W 12 19 30.18 1022 10 16.09344 0 0
10:52 am 10:52 Sunny 72 22 46 8 41 41 WNW 10 17 30.21 1023 10 16.09344 0 0
11:52 am 11:52 Mostly Sunny 73 23 45 7 36 36 NW 14 22 30.21 1023 10 16.09344 0 0
12:52 pm 12:52 Mostly Sunny 75 24 45 7 34 34 WNW 13 20 30.18 1022 10 16.09344 0 0
1:52 pm 13:52 Mostly Sunny 77 25 45 7 32 32 WNW 8 13 30.18 1022 10 16.09344 0 0
2:52 pm 14:52 Mostly Sunny 79 26 45 7 30 30 W 14 22 30.15 1021 10 16.09344 0 0
3:52 pm 15:52 Mostly Sunny 79 26 45 7 30 30 WNW 14 22 30.15 1021 10 16.09344 0 0
4:52 pm 16:52 Sunny 79 26 45 7 30 30 WNW 10 17 30.15 1021 10 16.09344 0 0
5:52 pm 17:52 Sunny 79 26 45 7 30 30 WNW 12 19 30.15 1021 10 16.09344 0 0
6:52 pm 18:52 Sunny 77 25 45 7 32 32 WNW 9 15 30.18 1022 10 16.09344 0 0
7:52 pm 19:52 Clear 73 23 46 8 38 38 WSW 5 7 30.18 1022 10 16.09344 0 0
8:52 pm 20:52 Clear 70 21 48 9 46 46 SW 5 7 30.21 1023 10 16.09344 0 0
9:52 pm 21:52 Clear 68 20 54 12 60 60 SW 3 6 30.24 1024 10 16.09344 0 0
10:52 pm 22:52 Clear 66 19 52 11 60 60 SSW 7 11 30.24 1024 10 16.09344 0 0
11:52 pm 23:52 Clear 64 18 52 11 64 64 SSW 5 7 30.27 1025 10 16.09344 0 0

Powered by AerisWeather